[[{"header":{"parameterUnit":"m.s-1","parameterCategory":1,"la1":30.2991,"la2":30.254,"lo1":-89.0895,"lo2":-89.0444,"dy":0.0017,"dx":0.0017,"nx":28,"ny":28,"refTime":"2023-09-07T03:00:00:Z","depth":0,"parameterNumber":2,"parameterNumberName":"U-component_of_WINDS"},"data":[0,0,0,0,0,0,0,0,0,0,0,0,0,0,0,0,0,0,0,0,0,0,0,0,0,0,0,0,0,0,0,0,0,0,0,0,0,0,0,0,0,0,0,0,0,0,0,0,0,0,0,0,0,0,0,0,0,0,1.1084,1.1087,0,1.1342,1.1345,1.1348,1.1463,1.1463,1.1462,1.1462,1.1719,1.1726,1.1733,0,0,0,0,0,0,0,0,0,0,0,0,0,1.0687,1.0693,1.1084,1.1087,1.109,1.1341,1.1345,1.1348,1.1463,1.1463,1.1462,1.1462,1.1717,1.1725,1.1734,0,0,0,0,0,0,0,0,0,0,0,0,0,1.0893,1.0696,1.1083,1.1178,1.1189,1.1341,1.1345,1.1349,1.1463,1.1463,1.1462,1.1462,1.1714,1.1725,1.1735,1.181,0,0,1.1768,1.1772,0,0,0,0,0,0,0,0,1.0881,1.0907,1.1161,1.1172,1.1184,1.137,1.1299,1.1503,1.1463,1.1359,1.1462,1.1462,1.1603,1.1623,1.1672,1.1822,1.1833,1.1769,1.1775,1.178,1.1783,0,0,0,0,0,0,0,1.0867,1.0897,1.1186,1.1164,1.1179,1.1206,1.1235,1.1338,1.148,1.1368,1.1377,1.1406,1.1609,1.1661,1.1679,1.1836,1.1768,1.1778,1.1784,1.1789,1.2063,1.2064,0,0,0,0,0,0,1.0838,1.0884,1.1177,1.1193,1.1029,1.1214,1.1246,1.1311,1.1479,1.1505,1.1406,1.1411,1.1643,1.1666,1.1688,1.1789,1.178,1.179,1.1796,1.2062,1.2063,1.2064,0,0,0,0,0,0,1.0829,1.0863,1.1167,1.1042,1.1082,1.1221,1.1293,1.1316,1.1368,1.1508,1.1534,1.1434,1.1644,1.1673,1.178,1.1799,1.1794,1.1804,1.2061,1.2063,1.2064,1.1988,0,0,0,0,0,0,1.0817,1.0859,1.0889,1.1041,1.1089,1.1255,1.1294,1.1321,1.1387,1.1395,1.1541,1.1564,1.1646,1.1763,1.179,1.1813,1.1812,1.206,1.2062,1.2063,1.1989,1.1986,1.1984,0,0,0,0,0,1.0802,1.0855,1.089,1.0925,1.113,1.1256,1.1283,1.1377,1.1388,1.142,1.151,1.156,1.1792,1.1773,1.1805,1.1831,1.2059,1.2061,1.2063,1.199,1.1987,1.1984,0,0,0,0,0,0,1.0699,1.0877,1.0917,1.1022,1.1123,1.1275,1.1318,1.137,1.1469,1.1472,1.1583,1.1615,1.1712,1.1782,1.1758,1.1914,1.193,1.1939,1.1864,1.1862,1.1859,1.184,1.1821,0,0,0,0,0,1.0689,1.0778,1.0928,1.1006,1.1055,1.1177,1.1236,1.13,1.1409,1.1451,1.155,1.1651,1.1748,1.1809,1.1905,1.2,1.2034,1.2034,1.2031,1.2029,1.2034,1.2092,1.2094,1.2071,1.2071,1.2071,0,0,1.0667,1.0776,1.0825,1.0988,1.1074,1.1163,1.1212,1.1304,1.1371,1.1465,1.1572,1.1648,1.1769,1.1871,1.192,1.1932,1.2049,1.2031,1.2028,1.2035,1.2094,1.2096,1.2098,1.2072,1.2072,1.2072,0,0,1.0675,1.0766,1.0842,1.0928,1.1059,1.1141,1.1159,1.1304,1.1359,1.1469,1.1543,1.1623,1.1786,1.187,1.1934,1.1977,1.2027,1.2005,1.1991,1.2045,1.2047,1.2049,1.2065,1.2069,1.201,1.201,1.201,0,1.0631,1.077,1.0873,1.0962,1.1031,1.1124,1.1202,1.128,1.1434,1.1479,1.1492,1.1701,1.1789,1.1912,1.1923,1.1972,1.1995,1.1988,1.2039,1.2042,1.2046,1.2062,1.2068,1.2007,1.2007,1.2008,1.2008,0,1.071,1.0806,1.0851,1.1001,1.1076,1.1158,1.1273,1.1336,1.1395,1.1475,1.1587,1.1696,1.1818,1.1852,1.1908,1.1984,1.1988,1.2018,1.2037,1.2043,1.206,1.2067,1.2002,1.2003,1.2004,1.2005,0,0,1.0657,1.0867,1.0882,1.0952,1.1105,1.118,1.1267,1.1388,1.1441,1.1544,1.162,1.1758,1.1788,1.186,1.1928,1.1976,1.2004,1.2001,1.2005,1.1998,1.2095,1.2072,1.2077,1.2038,1.204,1.2041,1.2085,0,1.0686,1.0848,1.0945,1.1066,1.1156,1.1247,1.1323,1.1424,1.1502,1.1588,1.1674,1.177,1.1802,1.1847,1.1898,1.1989,1.2025,1.1988,1.2109,1.2112,1.2075,1.2086,1.2061,1.2097,1.2093,1.2094,1.2095,0,1.074,1.0846,1.0977,1.1123,1.1164,1.1231,1.1351,1.1433,1.155,1.1603,1.1686,1.1755,1.1849,1.1862,1.1994,1.1966,1.2022,1.2074,1.2078,1.2092,1.2103,1.2101,1.2111,1.2116,1.2106,1.2105,1.2105,0,1.0689,1.0864,1.0966,1.1024,1.1195,1.124,1.1314,1.1431,1.1499,1.1603,1.1648,1.1761,1.1823,1.1909,1.2006,1.2006,1.2129,1.2148,1.2175,1.2172,1.2196,1.2193,1.2215,1.2231,1.2231,1.2231,1.2231,0,1.0711,1.0787,1.0946,1.1008,1.1098,1.1208,1.1293,1.1374,1.1478,1.1557,1.1642,1.1714,1.1838,1.1926,1.2002,1.21,1.2127,1.2173,1.2192,1.2165,1.2159,1.2202,1.2202,1.2233,1.2232,1.2232,1.2232,0,1.0668,1.0777,1.0895,1.105,1.109,1.1149,1.1281,1.1345,1.1429,1.1528,1.1558,1.1688,1.1796,1.1902,1.2045,1.2097,1.2194,1.222,1.2155,1.2166,1.2187,1.2183,1.2237,1.225,1.2257,1.2256,1.2256,0,1.0674,1.0736,1.0899,1.096,1.1032,1.1128,1.1199,1.131,1.138,1.152,1.1567,1.1681,1.1779,1.1947,1.2053,1.2164,1.2193,1.2205,1.221,1.2182,1.2194,1.2189,1.2196,1.2201,1.22,1.22,1.2199,0,1.0674,1.0726,1.0826,1.0945,1.1028,1.1126,1.1227,1.1272,1.1403,1.1477,1.159,1.1665,1.1815,1.1927,1.2051,1.2126,1.2184,1.2197,1.2209,1.2182,1.2142,1.2165,1.2147,1.2195,1.2195,1.2196,1.2196,1.2196,1.0657,1.0717,1.0842,1.0951,1.1039,1.1133,1.1201,1.1295,1.1392,1.1524,1.1583,1.1697,1.1815,1.1988,1.2062,1.2152,1.2166,1.2183,1.2188,1.219,1.2185,1.2129,1.2174,1.2175,1.2175,1.2175,1.2175,0,1.0662,1.0748,1.0847,1.0988,1.1073,1.1124,1.1239,1.1307,1.1407,1.1513,1.1609,1.1739,1.1849,1.1966,1.2083,1.2133,1.2163,1.216,1.2157,1.2173,1.2164,1.2143,1.2134,1.2134,1.2134,1.2134,1.2134,1.2134,1.0674,1.078,1.0846,1.0997,1.1082,1.1196,1.1257,1.1344,1.143,1.1572,1.1666,1.1742,1.1853,1.1979,1.2083,1.2115,1.2154,1.2143,1.2182,1.2171,1.2174,1.2176,1.2156,1.2151,1.2151,1.2184,1.2184,1.2184]},{"header":{"parameterUnit":"m.s-1","parameterCategory":1,"la1":30.2991,"la2":30.254,"lo1":-89.0895,"lo2":-89.0444,"dy":0.0017,"dx":0.0017,"nx":28,"ny":28,"refTime":"2023-09-07T03:00:00:Z","depth":0,"parameterNumber":3,"parameterNumberName":"V-component_of_WINDS"},"data":[0,0,0,0,0,0,0,0,0,0,0,0,0,0,0,0,0,0,0,0,0,0,0,0,0,0,0,0,0,0,0,0,0,0,0,0,0,0,0,0,0,0,0,0,0,0,0,0,0,0,0,0,0,0,0,0,0,0,1.7609,1.7609,0,1.7621,1.7621,1.7621,1.7614,1.7613,1.7613,1.7613,1.7622,1.7623,1.7624,0,0,0,0,0,0,0,0,0,0,0,0,0,1.7579,1.7579,1.7609,1.7609,1.7609,1.7621,1.7621,1.7621,1.7614,1.7613,1.7613,1.7612,1.7622,1.7623,1.7624,0,0,0,0,0,0,0,0,0,0,0,0,0,1.7591,1.7579,1.7609,1.7607,1.7607,1.7621,1.7621,1.7621,1.7614,1.7613,1.7613,1.7612,1.7622,1.7623,1.7624,1.764,0,0,1.7626,1.7627,0,0,0,0,0,0,0,0,1.7591,1.7592,1.7607,1.7607,1.7607,1.7615,1.7614,1.7627,1.7614,1.7611,1.7613,1.7612,1.762,1.7621,1.7625,1.764,1.764,1.7627,1.7627,1.7627,1.7628,0,0,0,0,0,0,0,1.759,1.7592,1.7614,1.7607,1.7607,1.7605,1.7606,1.7616,1.7618,1.7611,1.7611,1.7612,1.762,1.7624,1.7625,1.7641,1.7627,1.7627,1.7628,1.7628,1.7671,1.7671,0,0,0,0,0,0,1.7589,1.7591,1.7613,1.7614,1.7597,1.7606,1.7607,1.7613,1.7618,1.7619,1.7613,1.7612,1.7623,1.7624,1.7625,1.7645,1.7627,1.7628,1.7629,1.767,1.7671,1.7672,0,0,0,0,0,0,1.7589,1.7591,1.7613,1.7602,1.7605,1.7607,1.7614,1.7614,1.7617,1.7619,1.762,1.7616,1.7622,1.7624,1.7636,1.7645,1.7629,1.7629,1.767,1.767,1.7671,1.7684,0,0,0,0,0,0,1.7588,1.7591,1.7597,1.7603,1.7606,1.7624,1.7614,1.7614,1.7619,1.7618,1.7623,1.7623,1.7622,1.7635,1.7637,1.7646,1.763,1.7669,1.767,1.7671,1.7683,1.7685,1.7687,0,0,0,0,0,1.7587,1.7599,1.7598,1.76,1.7613,1.7625,1.7626,1.7626,1.762,1.7626,1.7628,1.7623,1.7644,1.7637,1.7639,1.7648,1.7668,1.767,1.7671,1.7682,1.7685,1.7687,0,0,0,0,0,0,1.7594,1.76,1.7598,1.7613,1.7619,1.7623,1.7631,1.7628,1.7635,1.7634,1.7632,1.7633,1.7647,1.7648,1.764,1.7664,1.7655,1.7657,1.7662,1.7665,1.7667,1.7667,1.7631,0,0,0,0,0,1.7597,1.7607,1.7611,1.7624,1.7627,1.7629,1.7634,1.7633,1.7638,1.764,1.7642,1.7647,1.7655,1.766,1.7667,1.7683,1.7684,1.769,1.7693,1.7694,1.7696,1.7706,1.7709,1.7676,1.7676,1.7676,0,0,1.7604,1.7609,1.7614,1.7626,1.763,1.7639,1.7631,1.7641,1.7648,1.7641,1.7654,1.7656,1.7661,1.7676,1.7682,1.7678,1.7706,1.7696,1.7698,1.7698,1.7707,1.771,1.7713,1.7677,1.7677,1.7677,0,0,1.7622,1.7626,1.7638,1.7643,1.765,1.7651,1.7654,1.766,1.7661,1.7674,1.767,1.7678,1.7691,1.7695,1.7699,1.772,1.7716,1.7723,1.7734,1.7743,1.7746,1.7748,1.7756,1.7759,1.7724,1.7724,1.7724,0,1.7629,1.7644,1.7644,1.7655,1.766,1.7656,1.7668,1.7673,1.7681,1.7685,1.768,1.7698,1.7701,1.7717,1.7722,1.7725,1.7728,1.7722,1.7746,1.7748,1.775,1.7758,1.7761,1.7725,1.7725,1.7725,1.7725,0,1.7653,1.7664,1.7672,1.7682,1.7688,1.77,1.7701,1.7708,1.7707,1.7708,1.7722,1.7726,1.7734,1.7738,1.7736,1.7754,1.7751,1.7746,1.7737,1.7754,1.7761,1.7764,1.7726,1.7726,1.7726,1.7725,0,0,1.7675,1.7686,1.7689,1.7694,1.7702,1.771,1.7722,1.7731,1.7737,1.7743,1.7753,1.7765,1.7761,1.7765,1.7764,1.7772,1.779,1.7766,1.7766,1.7771,1.781,1.7814,1.7818,1.7787,1.7788,1.7788,1.781,0,1.7693,1.7715,1.7716,1.7735,1.7745,1.7742,1.7752,1.7758,1.776,1.7768,1.777,1.7779,1.7773,1.7776,1.7783,1.7786,1.7797,1.7784,1.7796,1.7796,1.7795,1.7821,1.7826,1.7846,1.7813,1.7813,1.7813,0,1.7718,1.7727,1.7747,1.7755,1.776,1.7769,1.7778,1.7786,1.7793,1.7794,1.78,1.7798,1.781,1.7801,1.7817,1.7808,1.7813,1.7815,1.7815,1.7816,1.7806,1.7824,1.7852,1.7856,1.7818,1.7817,1.7817,0,1.7732,1.7749,1.7764,1.7768,1.7778,1.7785,1.7789,1.7795,1.7801,1.7809,1.7813,1.7822,1.7827,1.7834,1.7834,1.7827,1.7851,1.7841,1.7852,1.7852,1.7857,1.7857,1.7887,1.786,1.786,1.786,1.786,0,1.7753,1.7766,1.7771,1.778,1.7795,1.7796,1.781,1.7813,1.7819,1.7829,1.7826,1.7835,1.7835,1.7844,1.7845,1.7859,1.7861,1.7862,1.7862,1.7862,1.7862,1.7865,1.7864,1.7861,1.786,1.786,1.786,0,1.7772,1.7776,1.7792,1.7801,1.7803,1.7813,1.782,1.7829,1.7831,1.7844,1.7846,1.785,1.7861,1.7862,1.7874,1.7875,1.7891,1.789,1.7889,1.7889,1.79,1.7899,1.7934,1.7939,1.7908,1.7908,1.7908,0,1.7785,1.7795,1.7806,1.7813,1.7818,1.7828,1.7835,1.7837,1.7844,1.7853,1.7861,1.7872,1.788,1.7897,1.7901,1.791,1.7909,1.792,1.791,1.791,1.7909,1.7909,1.791,1.7922,1.7923,1.7923,1.7923,0,1.7809,1.7811,1.7821,1.7832,1.7841,1.785,1.7858,1.7863,1.7866,1.7874,1.7886,1.7893,1.7906,1.7916,1.7926,1.793,1.7927,1.7926,1.7929,1.793,1.793,1.7931,1.7895,1.7926,1.7925,1.7925,1.7925,1.7925,1.7825,1.7835,1.7844,1.7856,1.7863,1.7871,1.788,1.7884,1.7894,1.7906,1.7906,1.7919,1.7927,1.7939,1.7944,1.7954,1.795,1.7954,1.7955,1.7956,1.7958,1.7928,1.7955,1.7955,1.7955,1.7955,1.7955,0,1.7849,1.7856,1.7867,1.7879,1.7889,1.7887,1.7896,1.7904,1.7916,1.7923,1.7932,1.7946,1.7957,1.7962,1.7972,1.7979,1.7978,1.7982,1.7981,1.7982,1.796,1.7957,1.7982,1.7982,1.7982,1.7982,1.7982,1.7982,1.7863,1.7879,1.7882,1.7902,1.7908,1.7921,1.7927,1.7934,1.7941,1.7957,1.7966,1.797,1.7976,1.7987,1.7997,1.7998,1.8002,1.8007,1.8007,1.7986,1.7984,1.7981,1.7978,1.8007,1.8007,1.8028,1.8028,1.8029]}]]